Temp
26 25 24 25 25 26 27 27 27 27 27 27 27 26 25 25 24 27 27 25 25 25 25 26 25 24 24 24 24 23 23 23 24 25 24 25 25 25 25 26 26 26 27 27 26 26 26 25 25 25 25 24 24 23 23 23 23 22 22 22 22 22 22 22 22 21 21 21 21 21 22 22 22 22 22 22 22 22 22 22 23 23 23 23 23 23
25 24 25 26 26 26 26 26 26 27 28 28 27 26 25 25 25 27 27 26 26 26 25 26 26 25 25 25 24 24 23 23 23 24 24 25 25 25 25 26 26 26 27 27 27 26 26 26 25 25 25 24 24 23 23 23 23 23 23 22 22 22 22 22 22 22 22 22 22 22 22 22 22 22 22 22 22 22 22 23 23 23 23 23 23 23
24 24 26 26 25 25 25 25 26 27 28 28 27 26 25 25 25 25 26 26 27 26 26 26 26 26 26 25 25 24 24 23 23 23 24 25 25 25 25 26 26 26 26 27 27 27 26 26 26 25 25 25 24 24 23 23 23 23 23 22 23 23 23 23 23 23 23 23 23 23 23 23 22 22 22 22 22 22 23 23 23 23 23 23 23 23
23 24 26 25 24 25 25 25 26 27 27 28 27 25 24 25 25 23 24 26 27 26 26 26 26 26 26 25 24 24 24 24 23 23 24 24 25 25 26 26 26 26 26 26 27 27 27 26 26 25 25 25 25 24 24 23 23 23 23 23 23 24 24 24 23 23 23 23 23 23 23 23 23 23 23 22 22 23 23 23 24 24 23 23 23 23
24 25 25 24 24 26 26 25 27 27 26 27 27 26 25 26 25 24 25 26 26 26 26 26 24 23 25 25 24 24 24 24 24 24 23 23 24 25 26 26 26 27 27 27 27 28 27 27 26 26 25 25 25 24 24 24 24 23 23 24 24 24 24 24 24 23 23 23 23 23 23 23 22 23 22 22 22 22 23 23 24 24 23 23 23 23
26 25 24 24 24 26 26 26 27 27 25 25 27 28 27 28 27 25 25 25 23 23 25 26 22 22 25 25 25 25 23 24 24 24 24 23 23 24 25 26 26 27 27 27 27 28 28 27 26 26 25 25 25 25 24 24 24 24 24 24 24 24 24 24 24 24 23 23 23 23 23 22 22 23 23 23 23 23 23 23 23 24 24 24 24 24
25 25 25 26 25 25 26 26 26 27 25 24 26 28 28 29 27 25 25 24 22 22 26 27 23 22 24 25 26 26 24 24 24 24 24 23 23 23 25 26 26 27 27 27 27 28 28 27 27 26 25 25 25 25 25 24 24 24 24 24 24 24 24 24 24 24 24 23 23 23 23 23 23 23 23 23 24 23 23 23 23 23 23 24 24 24
25 25 25 26 26 26 26 25 26 27 25 24 26 27 28 29 27 25 25 24 24 24 25 26 24 22 22 24 27 26 24 24 24 24 24 24 23 23 24 26 26 27 27 27 27 28 28 27 27 26 26 26 26 25 25 25 24 24 24 25 24 24 24 24 24 24 24 24 24 23 23 23 23 24 24 24 24 24 23 23 23 23 23 24 24 23
25 25 25 26 26 26 26 26 26 26 27 26 26 27 28 29 28 27 26 24 25 24 22 23 24 22 21 24 26 26 24 24 24 24 24 25 24 24 24 25 26 26 27 27 27 28 28 27 27 27 26 26 26 26 25 25 24 24 24 24 24 24 24 24 24 24 24 24 24 24 23 24 24 24 24 24 24 24 24 23 23 23 23 23 23 23
25 25 26 27 26 26 27 27 26 27 28 27 26 27 28 28 28 27 26 25 24 23 21 22 23 22 22 23 25 24 24 24 25 25 25 25 25 25 23 24 25 26 26 27 27 28 28 27 27 27 26 26 26 26 25 25 24 24 24 24 24 24 24 24 24 24 24 24 24 24 24 24 24 24 24 24 24 24 24 23 23 23 23 23 23 23
25 25 25 27 27 27 27 26 26 27 28 27 27 28 27 27 27 27 26 25 22 22 22 23 24 23 22 23 24 24 24 26 27 26 26 25 25 25 24 24 25 26 26 26 27 28 28 27 27 27 27 26 26 26 25 25 24 24 24 23 23 24 24 24 24 24 24 24 24 24 24 24 24 24 24 24 23 24 24 24 23 23 23 23 23 23
25 25 26 27 27 27 27 26 25 26 27 27 28 28 25 24 24 24 23 23 22 21 22 24 25 23 21 23 26 27 27 27 27 27 26 26 25 26 25 25 25 26 26 26 26 27 28 27 27 27 27 26 26 25 25 25 24 24 24 24 23 23 24 24 24 24 24 24 24 24 24 24 24 24 24 24 24 24 24 24 23 23 23 23 23 23
26 26 26 26 26 27 27 26 25 25 26 27 27 25 22 22 22 21 21 22 21 22 23 24 24 23 22 25 27 27 28 28 28 28 27 26 26 26 26 25 25 26 26 26 26 26 27 27 27 27 26 26 25 25 25 25 25 24 24 24 23 23 24 24 24 24 24 24 24 24 24 24 24 24 25 25 25 25 24 24 23 23 23 23 23 23
24 25 26 26 26 27 27 26 24 24 26 26 25 23 22 21 21 21 21 21 21 22 23 25 24 22 23 25 26 26 27 27 27 28 28 27 27 26 26 26 25 25 26 26 26 26 27 27 27 26 26 25 25 25 25 25 24 24 23 23 23 24 24 24 24 24 24 24 24 24 24 24 24 24 24 25 24 24 24 24 24 23 23 23 23 23
22 23 25 27 26 26 27 28 27 27 26 26 28 26 23 22 22 21 21 21 22 22 22 24 23 22 22 24 25 26 26 26 27 27 28 28 27 26 26 26 26 25 25 25 26 27 27 27 27 26 26 25 25 25 25 25 24 24 23 23 23 23 24 24 24 24 24 24 24 24 24 24 24 24 24 24 24 24 24 24 24 24 23 23 23 23
21 22 26 26 25 26 27 28 28 28 26 26 28 26 23 24 24 22 22 22 22 22 22 22 23 24 25 25 25 26 26 26 26 27 28 27 27 27 26 26 26 25 24 24 25 26 27 27 26 26 26 25 25 25 25 25 24 24 23 23 23 23 24 24 24 24 24 24 24 24 24 24 24 24 24 24 24 24 24 24 24 24 24 24 24 24
21 22 26 26 24 26 27 27 28 27 26 25 25 24 25 28 27 22 21 22 22 21 22 22 22 24 25 25 25 26 26 26 26 27 27 27 27 26 26 26 26 25 24 23 24 25 26 26 26 26 26 25 25 25 25 25 24 24 24 23 23 23 23 24 24 24 24 24 24 24 24 24 24 24 24 24 24 24 24 24 24 24 24 24 24 24
22 22 26 26 26 26 25 25 27 27 27 25 24 25 26 27 27 24 22 22 21 21 22 21 22 22 23 23 25 26 26 26 26 26 27 27 27 26 26 27 26 25 24 24 23 24 24 25 25 26 26 26 25 25 25 25 24 24 24 24 23 23 23 24 24 24 24 24 24 24 24 24 24 24 24 24 24 24 24 24 24 24 24 24 24 24
22 22 24 25 26 26 25 25 26 26 27 26 26 28 27 23 23 23 22 22 21 21 21 21 22 22 22 23 24 24 24 25 25 26 26 26 26 26 27 27 26 26 25 24 23 23 24 24 25 25 25 25 25 25 25 25 24 24 24 24 24 24 24 24 24 23 24 24 24 24 24 24 24 24 24 24 24 24 24 24 24 24 24 24 24 25
23 22 23 25 25 25 26 26 25 25 26 26 27 28 27 25 23 23 23 23 22 21 22 21 21 22 23 24 24 24 23 24 25 25 25 26 26 26 26 27 26 25 24 24 23 23 23 24 24 24 25 25 25 25 24 24 24 24 24 24 23 23 23 23 23 23 23 24 23 24 24 24 24 24 24 24 25 25 24 24 24 24 24 25 25 25
23 22 21 25 26 24 25 25 25 25 26 26 25 25 25 25 25 25 24 23 22 22 22 22 21 22 23 24 24 24 23 23 23 23 24 25 25 26 26 26 26 25 24 23 23 23 23 23 24 24 24 24 24 24 24 24 24 24 24 23 23 23 23 23 23 23 23 23 23 23 24 24 24 24 24 24 24 24 24 24 25 25 24 25 25 25
23 23 21 23 24 23 24 26 25 25 25 26 26 25 25 25 24 23 22 22 23 22 22 22 22 22 22 23 23 23 23 23 23 22 22 23 24 24 25 25 25 25 24 23 23 23 23 23 23 23 23 23 23 23 23 24 24 23 23 23 23 23 23 23 23 23 23 23 23 23 24 24 24 24 24 24 24 24 24 24 25 25 25 25 25 25
23 23 22 22 23 24 25 25 24 23 25 26 26 26 26 26 24 22 22 22 22 22 22 22 22 22 22 23 23 23 23 23 23 23 22 22 23 23 24 24 24 24 24 23 23 22 21 21 22 22 22 22 23 23 23 24 24 23 23 23 23 23 23 23 23 23 23 23 23 23 23 23 23 24 24 24 24 24 24 24 24 25 25 25 25 25
22 22 21 22 23 25 26 25 24 25 25 25 25 25 25 25 24 23 23 23 22 22 22 22 22 22 22 22 22 22 22 22 22 22 22 22 22 22 23 23 24 24 23 23 23 22 22 21 21 22 21 21 22 22 23 24 23 23 23 23 23 23 22 22 22 23 23 23 23 23 23 23 23 23 24 24 24 24 24 24 24 24 25 25 25 25
22 22 21 21 22 22 24 24 24 25 25 25 24 24 24 24 24 24 24 24 23 22 22 22 22 22 22 22 22 22 22 21 21 22 22 21 21 21 21 22 22 22 23 23 23 22 22 21 21 21 21 21 21 21 22 22 22 22 22 22 22 22 22 23 23 23 23 23 23 22 23 23 23 23 23 24 24 24 24 24 24 24 24 24 25 25
22 21 21 21 21 21 21 21 22 23 24 24 24 24 24 23 23 23 23 22 22 21 22 22 22 21 22 22 22 22 21 21 21 21 21 21 21 21 21 21 21 22 22 22 22 22 22 22 21 21 21 21 21 20 21 21 21 21 21 22 22 22 22 23 23 23 23 23 23 23 23 23 23 23 23 24 24 24 24 24 24 24 24 24 24 24
22 21 21 21 21 21 21 21 22 23 23 23 23 23 23 23 23 23 23 22 22 22 21 22 22 21 21 22 22 21 21 20 20 20 21 21 22 21 21 21 21 21 21 21 22 22 22 21 21 21 21 21 21 20 20 20 20 20 21 21 22 22 22 22 22 22 22 22 23 23 23 23 23 23 23 23 24 24 24 24 24 24 24 24 24 24
23 22 21 21 22 22 23 23 23 23 23 22 22 22 23 23 23 23 22 22 23 22 21 22 23 21 22 23 22 21 21 21 21 21 21 21 22 22 21 21 21 21 21 21 21 21 21 20 20 21 21 21 21 20 20 20 20 20 20 21 21 21 21 21 21 21 22 22 22 22 22 22 23 23 23 23 23 23 23 23 23 24 24 24 24 24
23 22 21 22 22 22 22 23 23 23 23 23 22 22 23 23 22 22 22 22 23 22 22 23 23 22 23 24 22 21 21 21 21 21 21 21 22 22 21 21 20 20 20 20 21 20 20 20 20 21 21 21 21 21 20 20 20 20 20 21 21 20 21 21 21 21 21 21 21 21 22 23 23 23 22 23 23 23 23 23 23 23 23 23 23 24
21 22 21 22 22 22 22 22 23 23 23 23 23 23 23 23 22 22 22 22 22 22 22 23 23 23 24 24 22 21 21 21 21 21 21 21 21 22 21 21 20 20 20 20 20 20 19 19 20 20 20 20 20 20 20 20 20 20 20 20 20 21 21 21 21 21 21 21 20 20 21 22 22 22 22 22 22 22 22 22 22 23 23 23 23 23
21 21 21 21 22 22 22 22 22 23 24 23 23 24 23 23 23 22 22 22 21 22 23 23 23 22 23 23 22 21 21 21 20 20 20 21 21 21 21 20 19 19 19 19 19 19 18 18 19 19 19 19 19 19 19 19 19 19 19 19 20 20 20 20 20 20 20 20 20 20 20 21 21 21 21 21 21 21 22 22 22 22 22 23 23 23
21 21 20 21 21 21 22 22 22 23 24 23 22 23 22 22 22 21 21 20 20 21 22 22 22 22 22 22 21 20 20 20 20 20 20 20 21 21 20 19 19 19 19 18 18 18 18 18 18 18 18 18 17 18 18 18 18 18 19 19 19 19 20 20 20 20 20 20 20 20 20 20 21 20 20 20 20 21 21 21 22 22 22 22 22 23
20 21 21 21 21 21 21 21 21 22 22 21 22 22 22 22 21 21 21 20 20 21 21 22 22 22 22 21 21 20 20 20 20 20 20 20 21 21 20 19 19 19 18 18 18 18 18 18 18 17 17 17 16 17 17 17 17 17 17 18 18 18 19 19 19 19 19 20 20 20 20 20 20 20 20 20 20 21 21 21 22 22 22 22 22 22
19 20 20 20 20 21 21 21 21 21 20 20 21 22 23 22 22 21 21 20 20 21 21 22 21 21 21 21 20 20 20 20 20 20 20 20 20 20 19 19 19 18 18 18 18 17 18 18 17 17 17 16 16 16 17 17 16 17 17 17 17 18 17 18 18 18 18 18 19 19 19 20 20 20 20 20 20 20 21 21 21 22 22 22 22 22
20 20 19 19 20 21 20 20 20 20 20 20 21 22 22 22 22 21 20 20 20 20 21 21 21 21 21 21 20 20 19 19 19 19 20 20 20 19 19 19 19 19 18 17 17 17 17 17 17 17 17 16 16 17 17 17 17 17 17 17 17 17 17 17 17 17 17 17 18 18 18 18 19 19 19 20 20 20 20 20 21 21 21 21 21 21
21 20 19 19 20 20 20 20 20 20 20 21 21 21 21 21 22 22 21 21 20 20 21 21 21 20 20 20 19 19 19 19 18 18 18 19 19 19 18 18 19 19 18 17 17 17 17 17 17 17 17 17 17 17 17 17 17 17 17 17 17 17 17 17 17 17 17 17 18 18 18 18 18 18 18 19 19 19 19 19 20 20 20 20 21 20
20 20 20 20 19 20 20 20 20 20 21 21 21 21 20 20 21 22 22 21 20 20 21 21 19 19 19 19 19 19 19 19 18 17 18 18 18 18 18 18 18 18 18 18 18 17 17 16 16 17 17 16 16 17 17 18 18 17 17 17 17 17 17 17 16 16 17 17 17 18 18 18 18 18 18 18 18 18 19 19 19 19 20 20 20 20
19 20 20 20 19 19 20 20 20 20 20 20 21 21 20 20 20 21 22 21 20 20 21 20 18 18 18 19 19 19 19 19 18 17 18 18 18 18 18 18 18 18 18 18 18 17 17 16 16 16 16 16 16 16 17 18 18 17 17 16 16 16 16 17 16 16 17 17 17 18 18 18 18 18 18 17 17 18 18 18 19 19 19 20 20 20
19 19 19 20 20 20 20 20 20 20 20 20 20 21 21 20 19 20 21 21 20 20 21 20 18 18 18 18 19 20 20 19 18 18 17 18 18 19 18 18 18 18 18 18 18 17 16 16 16 16 16 16 16 16 17 17 17 17 16 16 16 16 16 16 16 16 17 17 17 18 18 17 17 17 17 17 17 17 18 18 18 19 19 19 19 19
20 20 19 20 20 19 20 20 20 20 20 20 19 20 20 20 19 20 21 21 20 20 21 20 19 18 18 18 19 20 20 19 18 17 17 17 18 19 18 17 17 17 17 17 17 16 16 16 16 16 16 15 16 16 16 17 16 16 15 15 16 16 15 15 15 16 17 17 17 17 17 18 18 17 17 17 17 17 18 18 18 19 19 19 19 19
19 19 19 19 20 20 20 20 20 20 20 19 19 19 19 19 20 20 21 20 19 20 21 21 20 19 18 18 19 19 19 18 17 16 15 16 17 18 18 17 17 17 17 16 16 16 16 16 16 16 15 16 16 16 16 16 16 15 15 15 15 15 15 15 16 16 17 17 17 17 17 17 18 18 18 17 17 18 18 18 18 19 19 19 19 19
19 19 18 19 19 19 19 20 20 20 19 17 17 18 19 20 21 20 19 18 18 19 21 21 20 20 19 19 19 18 17 17 16 15 15 15 16 17 17 17 17 17 16 16 16 16 16 16 16 16 16 16 16 16 16 16 15 15 15 15 15 15 15 15 16 16 16 16 16 16 17 17 17 17 18 18 18 18 18 18 18 18 18 18 18 19
18 19 19 19 18 18 19 20 20 20 19 17 17 19 20 20 20 19 18 18 19 19 20 20 20 20 20 19 18 17 16 16 16 15 15 15 15 16 16 16 17 17 16 16 16 16 16 16 16 16 16 16 16 16 16 15 15 15 15 14 14 15 15 15 15 15 15 16 16 16 16 16 17 17 17 17 18 18 18 18 18 18 18 18 18 18
18 19 20 19 19 19 20 20 19 19 18 17 17 19 19 18 18 16 16 18 19 19 20 20 19 19 19 19 18 17 16 16 15 15 15 15 16 16 15 15 15 16 16 16 16 16 16 16 16 15 15 15 15 15 15 15 15 14 14 14 14 14 15 15 15 15 15 15 15 15 15 16 16 16 17 17 17 17 17 17 18 18 18 18 18 18
18 18 18 19 18 18 19 19 18 17 17 16 16 17 17 17 16 15 16 18 19 19 19 19 19 18 19 18 17 17 17 16 15 15 15 15 16 16 15 15 15 15 15 15 15 15 15 15 15 15 15 14 14 14 14 14 14 14 14 14 14 14 14 14 15 14 14 14 14 14 15 15 15 16 16 16 17 17 17 17 17 17 17 18 18 18
17 16 16 18 18 18 17 17 17 17 17 16 16 16 16 16 16 16 16 17 18 18 19 19 18 18 18 17 17 16 16 16 16 15 15 16 16 16 15 15 15 15 15 14 14 14 14 15 15 15 14 14 14 14 14 14 14 14 14 14 14 14 14 14 14 14 14 14 14 14 15 15 15 15 15 15 16 16 16 16 16 17 17 17 17 17
16 16 17 18 18 18 18 17 16 16 16 16 16 17 16 16 16 16 16 16 16 17 18 18 17 17 16 16 16 16 16 16 16 15 15 15 15 16 15 15 14 15 15 14 14 14 14 14 14 14 14 14 13 14 14 13 13 13 13 13 14 14 14 14 14 14 14 14 14 14 14 15 15 15 15 14 14 15 15 15 15 15 15 15 15 15
17 17 17 18 18 18 19 17 16 16 16 16 16 17 16 16 16 16 16 16 16 16 17 17 17 17 16 16 16 15 15 15 15 15 14 14 15 15 15 14 14 14 14 14 14 14 14 14 14 14 14 13 13 13 13 13 13 13 13 13 13 13 13 13 13 13 13 14 14 14 14 14 14 14 14 14 14 14 14 14 14 14 14 14 14 14
16 17 18 17 18 19 18 17 16 17 17 17 16 16 15 15 16 16 16 16 16 16 16 17 17 17 16 15 15 15 15 15 14 14 14 14 14 14 14 14 14 14 14 14 14 15 14 14 14 13 13 13 13 13 13 12 12 12 13 13 13 13 13 13 13 13 13 13 13 13 13 13 13 14 14 14 14 14 13 13 13 14 13 13 13 14
17 18 18 17 18 19 19 17 17 17 18 17 16 16 15 15 16 17 16 16 16 16 16 16 16 16 16 15 15 15 15 14 14 14 14 14 13 13 13 13 13 13 13 14 14 14 14 14 13 13 13 12 12 12 12 12 12 12 12 12 12 12 13 13 13 13 13 13 13 13 13 13 13 13 13 14 14 14 13 13 13 13 13 13 13 13
17 18 18 18 18 18 18 17 16 17 17 17 16 16 15 15 16 16 16 16 16 16 16 16 16 16 16 16 16 16 16 15 14 14 14 13 13 13 13 13 13 14 14 13 13 13 13 13 13 13 12 12 12 12 12 12 12 12 12 12 12 12 12 12 12 13 13 13 13 12 13 13 13 13 13 13 13 13 13 14 14 13 13 13 13 13
Height
787 796 802 801 800 799 798 797 797 798 798 799 802 805 805 806 809 806 804 804 803 813 818 814 818 822 820 818 815 815 817 820 820 820 821 821 822 823 823 822 822 822 821 821 824 826 829 831 833 835 837 840 842 843 845 846 848 850 851 853 854 855 857 858 859 860 861 862 863 864 865 866 867 867 868 869 870 871 872 872 873 874 875 876 877 878
790 799 800 795 796 797 797 798 798 798 798 799 801 804 805 806 809 805 803 803 800 809 815 812 816 819 817 816 814 815 818 820 820 820 820 819 820 821 822 822 821 821 820 821 823 825 828 830 832 835 836 838 840 842 844 846 848 849 851 852 853 855 856 857 859 859 860 861 862 863 864 866 867 867 868 869 870 871 872 872 873 874 875 876 877 878
800 799 794 792 796 797 799 800 800 800 799 800 801 802 805 806 809 809 805 802 801 808 814 812 815 816 814 814 813 813 815 817 816 817 817 817 818 820 820 821 820 821 821 820 822 824 826 829 831 833 835 837 839 841 844 845 847 849 850 851 852 854 855 856 858 859 860 861 862 863 864 865 867 867 868 869 869 870 871 872 873 874 875 876 877 878
805 797 790 792 796 797 800 801 801 801 800 801 801 803 805 805 810 815 812 807 803 808 812 811 814 815 814 815 815 813 812 813 814 815 816 815 816 817 817 818 819 820 821 821 821 822 824 827 830 831 833 836 838 840 842 844 846 848 849 851 852 853 855 856 857 858 860 861 862 863 864 865 866 867 868 869 869 870 871 872 873 874 875 876 877 877
798 793 789 793 796 796 800 803 801 801 802 802 802 802 804 804 807 812 813 810 808 810 809 812 823 822 816 818 817 813 812 813 813 815 817 816 815 815 815 815 816 817 818 820 820 820 823 825 828 830 832 834 836 838 840 842 844 846 848 850 851 853 854 855 857 858 860 861 862 863 864 865 866 867 868 869 870 870 871 872 873 874 875 875 876 877
792 790 790 795 797 796 799 802 801 800 802 804 801 798 799 801 805 810 812 813 821 824 810 811 832 828 813 816 815 812 816 815 813 814 816 817 817 816 815 814 815 815 815 816 818 819 821 823 826 828 831 833 834 836 838 841 843 845 847 849 851 852 854 855 857 858 860 861 862 863 864 865 866 867 868 869 870 871 872 872 873 874 874 875 876 877
790 789 789 793 797 798 800 801 800 799 803 806 800 794 796 798 803 811 812 814 825 826 808 805 825 827 814 812 808 808 815 815 813 814 813 815 817 816 814 813 813 814 814 815 816 817 819 822 824 827 829 831 832 834 837 839 842 844 846 848 850 852 853 855 856 858 859 861 862 863 864 865 866 867 868 869 870 871 872 873 873 874 875 876 876 877
789 791 793 793 795 798 800 801 799 797 802 806 798 794 797 796 801 809 810 812 814 814 812 808 814 823 818 809 802 805 814 815 813 813 811 811 814 814 813 811 811 812 812 814 815 815 817 820 822 825 827 829 830 833 835 838 841 842 845 847 849 851 853 854 856 857 859 861 862 863 864 865 866 867 868 869 870 871 872 873 874 874 875 876 877 878
787 791 793 792 796 798 797 796 795 796 800 800 796 797 796 795 799 803 806 810 808 812 823 817 813 824 820 806 802 805 813 816 812 810 808 807 808 810 811 811 810 809 810 811 813 814 816 818 821 822 824 827 829 832 834 836 839 841 843 846 848 850 852 854 855 857 859 860 862 863 864 865 866 867 869 870 871 871 872 873 874 874 875 876 877 878
787 787 786 788 794 795 792 792 791 794 797 794 795 797 796 797 799 801 806 808 811 820 824 816 813 823 818 805 807 813 814 812 805 803 804 802 803 805 809 810 808 808 809 809 811 812 814 817 819 821 823 825 828 830 832 835 837 840 843 845 847 849 851 853 855 856 858 860 861 863 864 865 866 867 868 869 871 871 872 873 874 874 875 876 877 878
785 784 783 785 788 787 787 790 790 790 791 791 795 797 800 803 801 805 806 805 821 829 816 807 808 817 819 807 804 810 806 800 798 799 800 800 801 802 804 806 806 806 807 808 809 810 813 815 817 820 822 824 827 829 831 834 836 839 841 844 846 848 850 852 854 856 857 859 860 862 863 865 866 867 868 869 870 871 872 873 874 875 875 876 877 878
786 786 786 781 780 782 785 791 792 790 790 793 796 798 807 813 811 816 817 817 834 832 811 803 803 814 823 807 795 797 793 790 793 794 796 797 798 797 799 802 803 804 805 807 808 809 811 814 817 819 821 823 826 828 830 833 835 838 840 842 845 847 849 851 853 855 857 858 859 861 862 864 865 867 868 869 870 871 872 873 874 874 875 876 876 877
788 785 785 781 778 780 785 793 796 795 794 797 799 802 815 826 829 834 834 832 835 824 809 804 805 816 817 798 791 793 788 787 787 786 788 790 792 793 794 797 799 800 802 805 807 808 810 812 815 817 820 822 825 826 829 831 834 836 838 841 843 846 848 850 852 853 855 857 858 860 861 863 865 866 867 868 869 870 871 872 873 874 875 875 876 877
794 787 784 784 781 777 782 791 797 799 798 798 801 805 816 827 838 845 842 838 832 818 806 803 809 817 807 793 793 793 787 785 782 781 782 783 786 789 789 792 795 798 800 803 805 806 808 810 813 815 818 820 822 825 828 830 832 834 837 839 842 844 846 848 850 852 854 856 857 859 860 862 864 865 867 868 869 870 871 871 872 873 874 875 875 876
805 801 787 783 783 778 779 782 784 789 793 794 791 796 806 812 822 834 835 833 828 818 812 811 814 814 803 797 794 787 785 782 779 779 778 779 782 784 786 790 793 796 799 801 803 804 805 808 811 814 816 818 820 823 826 828 830 832 835 838 840 842 844 847 849 851 852 854 856 858 859 861 862 864 865 867 868 869 869 870 871 872 873 874 875 875
807 802 782 777 780 777 778 776 774 783 793 794 787 794 803 796 798 814 818 813 814 818 821 818 811 800 794 794 789 784 784 781 779 779 778 780 781 783 787 790 791 795 798 800 802 803 804 807 810 812 814 817 819 822 824 826 828 831 833 836 838 841 843 845 847 849 851 853 854 856 858 859 861 862 864 865 866 867 868 869 870 870 871 872 873 874
806 797 778 778 780 776 776 774 773 781 789 795 795 796 794 784 787 806 815 810 813 821 822 817 807 796 793 794 789 786 786 783 782 781 779 781 781 784 788 788 790 794 796 799 801 802 804 806 809 811 812 815 818 820 822 824 826 828 831 833 837 840 842 844 845 847 850 851 853 855 856 858 859 861 862 864 865 866 867 868 868 869 870 871 872 873
801 795 780 779 781 776 775 775 774 774 777 790 796 788 785 787 789 798 812 818 822 824 821 816 810 804 804 801 793 790 791 789 786 783 782 782 782 785 786 786 789 791 794 799 801 802 805 806 808 809 811 814 816 818 820 822 825 827 829 832 835 837 839 841 844 846 848 850 852 854 855 857 858 859 861 862 864 865 866 867 867 868 869 869 871 871
797 797 785 780 782 778 774 777 781 777 773 780 782 775 781 798 802 802 811 817 821 826 822 818 816 808 802 798 795 797 798 794 790 787 786 785 784 786 786 786 788 790 794 798 800 802 803 805 807 808 810 813 815 818 820 822 824 826 829 831 833 835 837 840 842 844 846 848 850 852 853 855 856 858 860 861 862 863 864 865 866 867 868 868 869 870
795 800 794 781 778 779 775 777 783 782 778 777 778 776 779 788 792 796 800 799 808 822 821 820 821 809 795 793 797 801 800 795 793 791 789 787 786 785 786 787 789 791 795 797 799 801 802 806 808 807 810 812 814 817 819 822 824 825 828 830 832 834 836 839 841 842 844 846 849 850 852 853 855 856 858 859 860 862 862 864 865 866 867 867 868 869
794 801 800 784 775 780 782 781 782 781 781 780 781 784 785 784 784 788 793 791 797 811 816 818 818 804 794 796 797 797 797 796 795 795 794 791 787 787 786 787 789 791 794 796 798 800 802 806 807 807 810 812 815 818 819 821 823 825 827 829 830 833 834 837 839 841 843 845 847 848 850 852 853 854 856 857 859 860 861 862 863 864 865 866 867 868
794 799 802 792 783 785 784 781 779 780 781 779 780 781 783 784 786 794 804 799 794 800 805 808 807 800 798 798 795 795 796 796 795 796 797 794 791 790 789 788 789 790 793 796 797 799 802 805 807 807 810 812 815 818 819 821 822 824 826 828 830 832 834 836 838 839 841 843 845 846 848 850 851 853 854 856 857 858 859 861 862 863 864 865 866 867
792 797 801 795 787 785 782 779 780 782 780 778 780 782 782 782 783 791 800 799 797 801 801 802 803 802 801 797 794 796 795 794 794 794 795 796 793 792 791 789 790 791 792 795 796 798 802 805 807 808 811 812 814 815 817 818 820 822 824 827 829 832 834 836 837 839 840 842 844 845 847 849 850 851 853 854 855 856 858 859 860 861 863 864 865 866
793 799 803 797 788 782 777 777 778 777 779 782 785 786 788 787 785 786 788 789 794 799 799 802 808 806 802 798 795 796 796 795 796 794 795 797 796 795 794 793 793 793 794 795 796 798 801 804 807 809 812 813 812 813 814 814 816 820 824 827 829 830 832 834 836 838 839 841 843 844 846 847 848 850 851 853 854 855 856 858 859 860 861 862 863 864
797 804 805 803 803 798 790 789 787 781 783 790 793 791 791 790 789 789 788 787 792 797 795 797 804 805 801 798 798 798 798 799 798 795 795 797 798 798 797 796 796 796 796 797 797 798 800 803 806 809 811 812 812 812 813 814 817 821 824 827 828 828 829 830 833 835 837 839 841 843 844 846 847 848 849 851 852 853 855 856 857 858 859 860 861 862
799 806 807 808 816 819 816 812 806 798 794 794 795 795 792 792 792 791 789 790 796 802 798 791 798 807 805 801 801 801 801 802 801 799 797 797 798 798 798 799 799 798 799 799 799 800 801 804 807 809 810 811 812 813 813 815 818 820 821 823 824 826 827 829 831 833 835 837 839 841 842 844 845 846 847 849 850 852 853 854 855 856 857 858 859 860
798 805 807 808 809 812 814 811 804 800 800 801 801 799 795 793 794 792 790 788 790 799 800 790 795 809 810 804 803 803 803 803 803 801 800 799 798 798 799 800 800 800 801 801 801 802 803 806 809 809 810 811 812 813 814 816 818 820 821 821 823 825 826 829 832 833 835 836 837 839 840 842 843 844 846 847 848 850 851 852 853 854 856 857 858 859
798 803 805 804 801 800 801 802 800 799 801 804 805 802 797 794 794 793 792 788 785 790 796 792 794 805 805 800 801 804 803 802 802 802 802 800 799 799 800 801 802 803 803 803 804 805 805 807 808 809 810 810 811 813 814 816 817 819 820 821 823 824 826 829 831 833 834 835 836 837 837 839 841 843 844 845 846 848 849 850 851 852 853 855 855 857
799 804 803 802 802 801 801 800 799 799 800 802 803 801 799 797 796 797 797 796 792 791 791 790 793 797 794 793 798 802 801 801 801 802 801 800 800 800 802 804 805 806 806 806 806 807 808 808 808 809 810 810 811 812 813 815 817 818 819 820 822 823 825 827 829 830 831 832 835 836 836 836 837 840 842 843 844 845 847 848 849 850 851 852 853 854
801 804 804 803 801 802 804 803 799 798 799 800 799 797 797 797 798 799 799 798 798 797 793 790 793 794 789 790 796 800 799 800 802 802 802 802 802 802 804 806 807 808 808 809 809 809 810 810 810 811 811 811 812 812 813 814 816 817 818 819 820 821 823 825 826 826 827 829 832 834 834 834 835 837 839 841 842 843 844 846 847 848 849 849 851 852
799 805 808 806 803 803 803 802 800 798 799 800 798 796 796 797 798 799 801 801 801 801 796 791 795 798 793 790 796 800 800 802 804 805 805 804 803 804 806 809 810 811 811 811 812 812 812 812 813 813 814 814 814 814 814 815 815 816 817 818 819 820 822 823 824 824 825 827 829 830 831 832 834 836 837 839 840 841 842 843 845 846 847 847 848 849
800 807 809 806 809 807 803 805 804 798 796 799 800 800 801 801 803 804 805 807 807 804 799 796 798 800 796 793 797 801 803 804 807 807 807 806 805 806 809 812 813 813 813 813 814 814 814 815 816 816 816 817 817 816 816 816 816 817 817 819 820 820 821 822 822 823 824 825 827 828 829 830 832 834 835 836 838 838 838 839 841 843 844 845 846 847
808 808 807 808 811 808 806 808 806 804 808 809 803 801 801 802 805 806 805 806 807 805 804 802 799 797 795 795 800 805 806 807 808 808 808 808 807 809 812 814 814 815 815 815 816 816 817 818 819 819 819 819 819 819 818 818 818 818 819 819 820 820 821 821 821 821 822 824 825 826 828 829 830 832 833 834 835 835 836 836 838 840 841 842 844 845
812 809 810 813 811 809 811 808 808 817 826 817 802 795 796 798 801 805 807 807 805 803 802 801 799 798 797 798 802 807 807 808 809 808 808 809 810 812 814 815 815 816 816 817 817 818 819 820 822 822 822 822 822 821 821 821 820 820 821 821 821 821 822 822 822 822 823 823 825 826 827 828 828 829 830 831 832 834 835 836 836 838 839 840 841 842
809 810 815 816 812 812 812 811 819 829 823 809 802 797 794 794 796 802 807 806 804 803 801 799 800 801 799 799 801 805 807 809 810 810 810 811 811 813 815 816 815 816 817 818 819 820 821 822 823 824 824 824 824 824 823 823 823 823 824 824 824 824 824 824 824 824 825 825 825 826 827 828 828 828 828 829 831 833 835 836 836 836 837 837 838 840
807 810 814 816 816 815 812 814 823 824 811 802 803 801 797 797 796 799 804 805 804 804 800 798 801 802 802 803 805 807 808 810 813 815 815 814 813 814 816 817 816 817 819 820 820 822 823 824 825 826 826 826 826 825 825 825 825 826 826 827 827 827 827 826 826 826 826 826 826 827 827 828 828 828 827 828 829 831 834 835 835 834 834 834 836 837
807 809 810 814 819 818 815 813 814 813 811 809 806 802 803 803 800 799 802 804 804 801 797 800 805 806 807 808 807 807 808 812 819 822 819 817 817 816 818 818 818 819 821 822 822 824 824 825 826 828 827 827 827 827 827 827 827 827 828 829 829 830 830 829 829 829 829 828 828 828 828 829 830 829 828 828 828 830 832 833 834 833 833 833 834 835
808 809 810 814 819 818 817 817 816 817 819 816 809 804 803 803 801 799 801 805 805 800 796 800 807 809 809 810 809 808 810 817 826 827 823 822 821 820 821 821 821 822 823 823 824 825 825 826 827 829 829 828 829 829 829 829 829 829 830 831 831 832 832 831 831 832 831 831 830 830 830 830 831 830 830 829 829 829 830 831 832 832 832 833 833 834
809 811 811 812 816 818 817 819 822 823 820 815 809 804 801 801 801 802 806 808 805 800 796 799 806 809 809 809 808 807 811 822 829 828 826 825 824 823 824 824 824 825 826 825 826 826 826 828 828 829 830 830 830 831 831 831 831 831 832 833 834 834 835 834 835 835 834 833 833 832 832 832 832 831 831 830 830 829 830 831 832 832 833 833 834 834
810 811 812 813 816 819 818 817 818 818 815 812 810 804 801 801 801 807 815 812 802 798 797 798 803 807 810 812 810 806 810 819 826 827 826 827 827 826 826 827 827 828 828 828 828 828 828 829 830 830 831 831 832 833 833 833 833 833 834 835 836 836 837 837 838 837 836 835 834 834 834 834 834 833 832 831 831 830 831 833 833 832 833 834 835 835
820 817 819 819 818 818 818 817 817 814 811 810 809 804 801 801 804 812 817 811 803 800 797 797 801 803 806 810 812 811 811 813 818 822 825 827 830 829 828 829 830 830 830 830 830 830 830 831 831 831 832 833 834 835 835 835 835 835 836 837 837 838 839 839 839 839 838 837 836 836 835 835 835 834 833 832 832 831 832 834 834 833 833 834 835 835
824 823 823 822 822 823 821 817 817 817 813 811 810 804 800 804 810 812 809 806 805 802 798 797 800 801 803 807 810 814 815 814 816 821 823 828 832 832 831 832 832 832 832 831 831 831 831 831 832 833 834 835 836 837 837 837 836 837 837 838 839 840 840 840 840 839 839 838 838 837 837 836 836 835 834 834 833 833 834 836 837 835 834 834 835 835
823 822 822 822 824 826 823 820 822 822 816 813 811 805 802 807 812 810 806 803 802 800 800 800 800 801 804 807 810 815 817 817 819 822 824 828 832 833 834 834 834 835 834 833 833 833 832 833 834 835 836 837 837 838 839 838 838 839 839 839 840 841 841 841 841 840 840 840 839 839 838 838 838 838 837 836 836 836 836 838 838 837 835 835 835 835
823 822 822 821 821 822 821 821 823 820 815 814 815 811 810 811 810 810 810 806 800 799 801 802 803 804 805 807 810 813 815 817 818 821 825 829 831 834 835 835 836 837 836 835 835 834 834 835 835 836 838 838 838 839 840 840 840 840 840 840 841 841 841 841 841 841 841 841 841 840 840 840 840 840 839 839 838 838 838 838 837 837 836 835 836 836
822 822 822 821 820 821 820 819 818 817 816 816 817 816 814 812 811 811 810 806 802 801 800 801 804 806 807 809 812 813 815 818 819 820 825 828 830 833 836 836 836 837 837 836 836 836 836 837 837 838 839 840 840 841 841 842 842 842 842 842 841 841 841 841 842 842 842 843 842 842 842 842 841 841 840 840 839 838 838 837 837 837 837 837 837 837
822 823 823 821 819 819 820 819 819 818 817 816 816 816 815 813 811 810 808 806 804 803 801 802 805 806 808 812 815 817 819 821 822 823 826 829 831 833 835 836 837 837 838 838 837 837 838 839 839 841 841 842 843 842 842 843 843 843 843 843 842 842 842 842 842 842 843 843 844 844 844 843 843 842 841 841 840 839 839 838 838 838 838 838 838 838
822 822 821 820 820 820 820 819 819 819 818 817 815 814 813 812 811 809 808 807 806 804 803 804 805 808 810 813 816 819 822 824 824 825 827 830 833 833 833 835 837 838 838 839 839 839 840 840 841 842 842 843 844 844 844 844 844 844 844 844 843 843 843 842 843 843 843 844 844 844 844 844 844 844 843 843 842 842 841 840 840 839 839 839 840 840
821 821 820 821 821 820 818 819 819 819 818 817 816 814 813 813 811 810 809 808 807 806 806 806 807 809 812 814 817 820 823 826 828 828 829 831 834 835 835 835 836 837 838 838 839 839 839 840 841 842 843 844 845 845 845 845 845 845 845 845 845 844 844 844 844 844 844 844 844 845 845 845 845 844 844 844 844 843 843 843 842 842 842 841 841 841
820 819 820 821 820 817 817 818 819 819 817 817 816 816 816 815 813 811 810 809 808 808 808 809 810 810 812 816 820 822 825 827 829 830 831 832 834 837 837 836 836 837 837 837 838 838 839 839 840 841 842 844 845 846 846 846 846 846 846 846 846 846 845 845 845 845 845 845 845 845 845 845 845 845 844 845 844 844 844 844 843 843 843 843 842 842
820 818 819 821 821 818 817 817 818 819 818 818 818 818 817 816 814 812 812 811 811 811 812 812 813 814 815 818 821 823 824 825 828 830 831 831 832 835 837 838 838 837 837 837 838 839 839 840 840 842 843 845 846 847 847 847 847 847 847 847 847 847 846 846 846 846 846 846 846 847 846 846 846 846 845 845 845 845 845 844 844 843 843 843 843 842
817 816 816 818 819 818 817 817 819 819 818 818 819 818 818 817 815 815 815 814 814 814 814 814 815 816 817 819 821 822 821 822 825 827 828 828 830 831 833 836 836 835 836 837 838 839 840 840 841 842 844 845 846 847 848 848 849 849 849 848 848 848 847 847 847 848 848 848 848 848 848 848 848 847 847 847 846 846 845 845 844 843 843 843 842 842
Wind_Speed
3 5 6 6 5 3 3 3 1 3 2 4 5 4 4 3 2 3 4 9 13 8 7 10 8 5 6 8 11 11 10 8 9 11 12 12 13 12 11 10 11 11 11 12 14 14 14 14 14 14 13 13 13 13 15 15 15 16 15 14 13 11 10 10 9 9 9 8 8 7 7 6 6 7 7 6 6 5 5 7 8 8 8 8 8 8
3 7 8 6 4 1 1 2 3 2 2 3 3 3 3 3 2 1 3 11 13 7 6 9 9 8 7 8 10 11 12 11 10 10 12 14 15 13 12 12 12 10 9 11 12 14 15 14 15 14 14 15 15 15 16 16 16 16 16 15 15 13 12 11 11 11 11 11 10 8 7 6 5 7 7 5 6 5 6 7 8 8 8 7 7 8
5 8 8 5 3 2 1 2 3 2 0 2 1 2 2 2 2 2 2 9 12 6 5 10 9 8 7 7 9 11 12 11 9 9 9 13 14 13 12 12 12 11 10 11 12 14 15 15 15 15 14 16 16 15 16 16 16 17 16 16 17 16 14 13 13 13 13 12 11 9 8 7 5 6 7 6 6 5 6 8 8 8 8 7 7 8
5 5 5 6 5 4 1 2 4 3 2 2 1 1 2 2 2 2 2 7 9 2 3 10 8 4 6 6 7 11 11 9 9 9 7 8 11 12 13 12 12 13 11 11 12 14 15 16 16 16 15 15 15 15 16 17 17 17 18 19 19 17 15 14 14 14 13 12 11 9 8 7 6 6 7 6 5 5 6 8 9 8 7 7 7 8
5 2 4 7 7 6 3 3 4 4 3 2 2 3 1 2 1 1 4 7 6 1 2 8 5 3 7 8 8 8 9 9 11 11 9 7 7 9 11 12 12 13 12 12 13 13 15 16 16 17 16 16 16 17 18 18 18 18 19 21 20 18 16 15 15 15 14 13 12 11 9 7 6 6 6 6 5 6 7 7 8 8 7 7 7 8
5 3 6 7 6 6 5 4 4 5 3 2 4 6 4 3 2 5 9 8 4 3 5 8 5 3 7 10 11 8 9 11 11 13 13 9 7 8 10 13 13 13 12 12 13 13 15 17 17 17 16 17 17 17 18 18 18 19 21 22 20 19 17 16 16 17 16 15 14 13 10 8 7 5 6 6 5 6 6 6 7 7 7 8 8 8
2 4 5 6 6 7 6 4 3 4 4 3 3 5 6 5 5 9 11 6 2 1 5 8 5 1 4 9 12 11 12 14 13 15 17 11 8 9 10 12 13 13 13 12 13 14 16 17 17 17 18 18 18 17 18 17 17 19 22 23 22 20 19 18 18 19 19 17 16 15 12 9 8 6 7 8 7 6 6 6 7 7 7 8 8 8
3 5 4 4 5 6 5 4 4 5 5 2 1 3 8 8 7 10 9 5 1 2 4 6 5 3 2 4 9 12 12 14 15 17 18 15 12 11 11 11 12 14 13 12 13 14 16 18 18 19 19 20 19 17 17 17 17 20 23 24 23 22 21 20 20 21 21 19 18 17 14 11 10 9 9 10 9 8 7 7 7 7 8 9 9 9
3 6 5 5 4 4 4 3 6 7 5 1 2 2 5 7 7 9 7 3 2 2 3 6 4 4 3 2 5 10 11 13 16 19 19 19 17 14 11 11 12 12 13 13 13 14 16 18 19 20 21 21 19 17 19 20 19 21 24 24 24 23 23 22 21 22 22 21 19 18 15 14 13 11 11 11 11 10 9 8 8 8 8 9 9 9
1 3 4 5 4 4 4 4 8 10 5 2 5 3 3 3 4 6 5 2 3 3 4 7 8 5 3 3 5 8 10 12 15 16 18 19 19 16 12 12 13 11 11 12 13 15 17 19 20 21 20 20 20 18 20 20 18 20 22 24 24 24 24 24 23 23 23 22 20 18 17 16 14 13 13 13 13 13 12 10 9 8 9 9 10 9
1 0 1 3 3 3 4 3 6 9 5 4 6 3 4 4 3 3 2 1 3 4 3 7 11 6 3 3 6 7 6 7 10 12 15 18 19 17 14 13 14 12 10 11 12 15 18 19 20 20 19 20 19 17 18 18 17 19 22 24 24 25 25 25 24 24 24 23 21 20 19 17 15 14 14 14 13 14 13 13 11 10 10 10 10 10
1 2 2 3 3 3 3 3 1 2 1 2 3 4 3 3 3 3 2 2 4 3 1 4 11 9 6 2 4 6 4 3 6 10 14 17 19 17 15 14 14 12 11 10 10 12 14 16 17 17 18 18 18 17 18 18 18 19 22 24 24 25 26 26 25 25 25 24 23 21 19 19 17 15 13 13 14 14 15 14 12 12 11 10 11 11
3 3 1 2 3 4 5 3 2 0 2 4 3 4 5 4 3 4 3 3 5 3 2 2 9 7 6 2 1 3 5 5 6 8 12 16 18 17 16 15 14 12 11 11 10 10 11 13 15 17 17 17 17 18 19 19 18 19 22 25 26 26 27 27 26 26 26 26 25 22 21 20 19 16 14 14 15 15 16 15 14 13 12 11 11 11
3 2 2 3 3 5 7 5 3 3 5 7 6 6 6 5 5 6 4 2 4 4 0 3 7 4 4 1 2 3 6 7 7 8 10 14 17 17 16 16 13 11 11 10 10 11 11 13 16 17 17 18 19 20 20 20 19 20 21 25 26 27 28 28 27 27 27 27 26 24 23 22 20 18 16 16 16 16 16 16 15 14 13 12 12 12
3 2 4 5 2 4 8 8 6 4 6 7 6 6 6 4 4 4 4 4 4 3 3 6 6 3 2 1 3 5 5 6 7 8 8 10 13 14 14 15 14 11 9 8 10 11 12 14 16 16 17 19 20 21 20 20 20 21 21 25 28 28 29 29 28 28 28 28 27 26 25 23 21 20 18 17 17 17 17 16 16 16 14 13 12 12
3 3 2 2 1 4 7 6 4 4 4 4 4 6 6 4 3 1 2 3 2 1 3 5 4 2 0 1 2 3 3 3 2 7 8 8 10 12 12 13 13 11 9 7 8 10 11 14 15 16 18 19 19 20 20 20 21 22 23 26 29 28 30 30 29 29 29 29 29 27 27 25 23 21 19 18 18 17 17 17 17 16 15 14 13 12
2 1 1 0 2 5 5 4 6 5 4 3 4 6 3 1 2 1 1 2 0 3 3 3 4 1 1 2 1 3 4 5 2 4 7 8 10 12 12 12 13 12 10 7 6 6 8 11 13 15 18 18 19 20 20 21 23 25 25 27 28 27 28 30 31 30 30 30 29 28 28 26 24 22 20 18 17 17 18 18 17 16 15 14 13 12
2 2 0 0 2 3 1 1 3 3 3 4 4 5 4 1 2 1 2 3 3 5 3 3 6 3 1 2 1 3 4 5 3 2 4 6 9 12 13 13 13 13 12 9 7 6 7 9 11 15 17 17 19 20 21 22 24 25 26 26 26 27 28 31 30 30 30 30 29 29 28 27 26 24 21 18 17 17 17 18 17 16 15 14 13 12
2 3 0 1 1 1 1 3 3 2 2 1 1 6 5 3 4 3 3 4 5 4 3 3 4 4 4 3 2 3 3 4 2 2 3 6 9 10 12 14 14 13 12 10 9 7 7 9 12 15 15 15 17 17 17 18 19 20 21 22 23 25 28 28 27 27 30 31 28 28 28 27 27 26 23 20 18 17 16 16 16 16 14 13 12 11
1 2 1 2 1 1 0 3 4 5 3 0 1 4 2 2 4 4 3 3 3 4 3 4 3 3 4 1 3 3 2 2 3 4 3 5 7 8 10 12 12 12 10 9 9 7 8 10 11 12 12 12 16 16 15 16 17 17 18 19 20 21 23 23 22 24 29 28 26 27 28 27 27 27 25 23 20 17 16 15 15 15 13 12 12 11
1 1 1 1 1 2 1 0 2 2 3 3 5 6 4 1 1 2 2 1 2 3 4 4 4 2 1 2 3 4 3 3 5 6 4 4 6 7 9 10 10 11 10 8 8 8 9 9 9 10 12 12 13 13 13 15 16 16 17 18 20 22 23 23 22 23 25 25 24 26 27 26 25 26 26 24 21 18 16 16 15 14 13 12 12 11
1 0 2 3 2 0 2 2 2 2 1 1 2 4 4 2 3 5 5 1 1 2 2 4 5 2 3 2 3 4 4 4 7 8 6 5 7 7 8 9 10 11 10 10 8 7 8 8 7 8 10 10 9 9 11 13 13 14 15 16 17 19 20 21 20 21 24 24 24 25 24 23 23 24 25 23 20 19 17 16 16 15 13 12 12 11
1 1 1 3 2 2 1 1 1 0 1 2 4 3 2 1 2 6 6 4 3 2 1 1 3 1 2 2 2 4 4 4 6 8 8 6 7 8 8 8 9 10 10 11 9 7 8 9 8 7 8 10 11 12 14 16 16 17 17 17 16 15 15 15 15 17 20 21 21 21 20 19 19 21 22 21 19 18 16 15 15 16 15 12 10 11
1 0 1 2 2 1 1 2 4 3 2 3 6 7 4 3 3 3 2 2 5 4 2 3 3 1 2 3 3 4 5 4 4 6 8 7 6 7 8 8 8 8 9 9 8 8 11 13 12 10 10 11 13 15 18 23 24 20 16 14 14 14 14 14 15 16 18 19 18 17 16 17 17 17 18 18 18 17 16 14 14 15 15 12 10 10
0 0 1 1 0 2 2 3 3 3 4 3 5 7 6 6 3 2 0 0 4 3 2 5 4 2 4 4 5 5 6 5 4 4 7 7 6 6 6 7 7 7 8 8 8 8 9 10 11 10 10 12 13 14 19 23 21 16 13 13 14 15 15 17 17 17 17 18 18 17 16 15 15 15 17 18 17 17 16 14 13 14 15 13 12 11
0 1 1 1 1 1 1 2 1 3 4 3 5 9 9 8 4 2 1 2 4 1 2 5 2 3 6 7 7 7 7 7 5 5 6 6 6 6 6 6 6 6 7 7 7 7 7 6 7 8 10 11 12 13 15 15 13 14 17 20 21 20 20 20 20 18 16 16 16 17 18 17 16 16 17 17 17 16 15 15 14 14 14 14 13 12
1 2 1 1 2 4 3 2 2 3 2 4 7 10 10 9 4 2 2 3 3 4 3 3 3 7 10 10 9 9 8 8 8 8 7 6 6 6 6 6 6 5 5 6 5 4 4 4 5 7 9 10 10 10 11 11 11 12 14 17 20 20 20 19 18 16 16 16 16 16 17 17 18 19 18 17 17 16 15 15 14 13 13 13 13 13
1 2 3 2 1 4 5 4 2 3 3 6 8 10 11 10 5 1 3 2 1 4 4 3 7 10 12 13 12 10 9 9 9 8 8 8 7 7 7 8 8 7 6 6 5 5 5 5 7 8 9 10 11 11 10 10 10 10 10 11 13 14 15 16 16 17 18 19 18 19 18 17 17 18 19 19 20 18 16 14 13 13 13 13 14 13
1 1 2 2 1 1 3 4 2 2 3 4 8 11 12 10 7 4 3 5 4 4 2 5 11 9 9 14 13 10 9 9 9 8 8 8 8 8 9 9 9 9 9 8 7 7 7 7 7 7 7 8 10 11 11 11 10 9 9 9 10 10 12 13 14 17 19 19 20 21 21 21 20 19 20 21 21 20 18 16 14 14 15 15 14 13
1 0 2 1 1 1 2 1 2 1 0 2 8 12 12 9 8 6 5 7 6 6 4 5 10 5 6 13 13 9 9 8 8 8 8 9 9 9 9 10 9 9 10 10 10 9 10 10 11 12 11 11 11 11 12 11 10 9 10 11 11 12 13 13 14 16 18 19 19 21 22 22 21 20 20 20 20 20 19 17 16 16 16 16 16 15
1 0 1 1 3 2 3 3 2 3 3 4 7 12 12 9 8 7 7 7 7 6 2 7 9 6 6 11 12 11 9 9 9 9 9 8 8 9 10 10 10 10 10 11 12 12 12 13 14 14 15 14 14 15 15 14 12 10 8 7 8 9 11 13 14 15 16 15 15 17 21 22 21 21 20 17 16 16 16 15 15 16 16 17 17 17
3 1 1 1 4 4 1 4 4 4 6 6 3 8 10 8 6 6 5 6 6 4 2 7 7 6 9 12 13 12 11 11 11 10 9 8 8 9 10 10 11 12 12 13 13 13 13 12 13 14 15 15 17 17 16 15 14 12 10 8 6 7 8 10 12 13 13 13 14 14 17 19 20 20 18 14 14 16 17 16 15 16 17 17 17 17
2 1 0 1 3 3 1 3 3 3 5 6 1 4 6 6 4 2 3 4 5 4 1 1 1 5 11 13 13 12 12 11 10 8 8 8 9 9 10 11 12 13 13 14 13 12 12 12 14 14 15 17 20 21 20 20 19 18 17 17 16 14 13 11 9 6 5 8 12 14 15 16 17 18 18 16 16 20 21 19 18 18 18 18 17 17
1 1 1 0 2 2 2 3 0 2 2 1 1 2 4 7 6 4 3 3 3 2 1 1 2 7 12 13 13 13 11 9 7 6 7 8 9 10 10 11 13 12 13 13 12 11 11 13 15 16 16 17 20 24 26 26 25 25 25 25 24 22 21 20 18 15 12 9 6 7 11 13 14 16 18 17 15 17 18 19 19 19 19 18 16 15
1 1 1 0 1 1 1 0 4 5 2 1 1 1 3 8 8 6 4 2 4 2 2 3 7 10 11 12 13 11 10 9 8 7 6 6 7 10 11 10 12 12 11 11 11 12 12 13 14 15 15 17 21 26 27 27 27 27 26 27 27 27 26 25 24 22 20 18 15 11 7 6 6 8 12 15 15 14 13 15 16 16 15 15 13 11
2 1 1 0 1 0 2 3 4 2 2 1 1 1 1 2 4 4 3 3 5 3 1 6 10 10 10 11 11 10 11 11 9 8 7 5 5 8 8 8 11 13 11 11 12 14 13 14 14 14 15 19 25 28 28 27 27 26 25 26 28 27 27 27 26 25 24 22 20 17 14 10 8 7 8 12 16 15 12 10 11 11 11 11 9 8
2 0 0 0 0 0 1 2 1 0 1 1 1 2 3 3 2 1 1 2 2 1 4 10 11 10 11 11 11 12 12 10 7 6 7 6 7 9 8 8 11 13 13 14 15 15 15 16 17 15 17 21 24 27 28 28 28 28 27 27 27 26 26 26 24 23 22 21 20 17 15 13 11 10 10 12 15 16 13 11 10 10 10 9 8 7
2 2 1 1 1 0 1 2 2 3 3 2 2 4 5 6 5 3 2 1 1 3 8 13 12 10 12 12 12 12 11 8 5 3 5 5 6 9 11 11 13 14 15 16 17 16 15 17 19 18 18 19 20 23 26 26 27 28 26 22 22 22 23 24 22 20 19 19 18 16 15 13 11 9 9 9 11 12 13 13 12 11 10 10 9 8
3 3 0 1 1 1 2 2 2 2 2 2 4 6 7 7 5 3 2 0 3 6 10 14 14 12 11 11 12 12 9 7 5 3 3 3 5 9 10 10 12 13 13 14 16 17 17 19 22 22 21 20 19 21 23 24 25 25 21 17 17 18 18 19 19 19 18 18 16 15 15 14 12 10 9 8 8 7 8 9 10 11 10 8 8 7
3 2 1 0 1 1 1 1 1 0 2 3 7 9 9 6 2 2 3 1 3 8 10 13 15 14 11 9 8 9 8 7 6 4 1 1 4 8 10 10 11 12 13 13 16 19 20 21 21 20 19 19 18 18 20 21 22 21 18 16 16 16 15 15 17 18 18 18 17 16 16 15 14 14 12 11 10 8 6 7 8 9 9 9 7 6
2 2 1 1 1 1 1 1 1 1 2 4 8 10 9 4 2 3 1 2 1 7 10 13 15 16 15 12 8 4 5 7 8 8 5 3 3 6 9 11 12 12 13 14 15 17 18 18 18 18 18 18 18 16 16 18 19 17 15 15 16 14 13 14 16 17 17 17 17 17 17 16 15 15 14 13 13 12 9 7 7 7 8 9 9 9
1 1 1 1 1 1 1 0 1 2 2 5 10 9 6 3 2 1 3 2 4 7 8 10 13 15 15 12 7 4 5 9 11 11 9 6 4 5 7 9 10 12 13 13 14 15 15 15 15 16 16 15 14 13 13 15 16 15 14 15 14 13 12 14 15 15 16 16 17 17 17 16 15 15 15 14 15 15 13 11 10 9 10 11 12 13
1 1 0 0 0 0 0 0 1 2 3 5 9 6 2 3 3 3 5 4 2 5 5 5 8 11 11 10 10 10 10 11 12 11 11 9 7 7 7 7 8 9 10 11 12 13 15 15 14 14 13 12 12 11 12 13 14 13 13 14 13 11 12 13 14 14 15 15 16 16 16 15 14 14 14 14 14 16 16 15 15 14 14 15 15 15
1 1 1 0 1 1 1 1 2 2 3 5 6 3 3 4 4 4 5 5 2 3 4 3 4 5 6 8 12 14 14 13 12 12 11 10 9 9 9 9 9 8 8 10 11 12 14 15 15 14 13 13 13 13 12 12 13 13 13 13 12 11 12 12 13 14 14 13 14 15 14 14 14 13 13 12 12 13 14 15 15 16 16 16 16 15
0 1 2 1 1 1 2 2 2 3 4 4 2 2 3 5 4 4 4 4 2 1 3 4 4 4 5 7 11 12 12 12 11 11 10 9 10 10 9 9 10 10 9 10 13 13 12 14 15 14 14 13 13 13 12 11 12 13 12 12 11 10 10 11 12 12 12 12 12 11 11 13 13 13 13 12 11 12 13 13 13 14 14 14 14 14
1 0 0 1 1 1 1 1 2 3 4 5 3 1 2 5 4 3 3 2 2 1 2 4 6 6 7 8 9 9 9 10 10 8 7 7 9 11 11 9 9 11 10 10 13 14 13 14 14 14 13 12 11 11 11 10 10 11 10 9 9 9 8 9 10 11 11 11 10 10 9 10 11 11 12 12 12 12 12 12 12 12 12 13 13 13
1 2 1 0 1 1 1 1 2 2 4 6 4 1 1 5 6 4 3 3 3 2 2 6 8 9 9 9 9 9 9 9 9 7 6 5 6 10 12 11 9 10 11 13 16 17 16 15 13 12 12 11 9 9 9 9 9 9 8 7 7 7 8 9 9 10 10 9 9 9 9 9 9 9 10 11 11 11 11 11 11 11 11 11 10 10
2 2 1 0 0 1 1 1 1 1 2 4 5 3 3 5 6 6 5 4 4 3 4 6 9 10 9 7 7 9 8 6 5 5 6 5 4 6 9 11 11 10 11 15 18 18 17 17 16 14 12 11 9 8 8 8 8 8 8 8 7 8 9 10 9 9 10 9 9 9 9 9 9 8 8 9 9 10 10 10 9 9 9 9 8 8
0 2 1 0 1 2 1 1 2 2 0 4 6 6 5 5 5 6 7 7 6 6 5 6 7 10 11 11 10 8 7 6 6 7 7 6 6 5 4 7 10 12 13 16 17 16 16 17 16 15 14 13 11 9 9 10 9 9 9 9 8 8 9 9 9 9 8 8 8 9 8 8 9 8 8 8 8 8 9 9 9 8 7 7 7 6
2 2 2 1 3 3 0 1 1 2 1 4 5 6 6 6 5 7 8 8 7 6 5 6 7 9 13 16 15 13 11 10 11 12 10 9 11 11 8 6 7 9 13 15 15 15 15 16 16 16 16 15 12 11 11 11 10 9 9 9 8 8 8 8 7 7 7 7 7 7 7 7 7 7 8 7 7 7 7 8 8 8 7 6 6 5
2 2 2 2 2 0 1 2 1 0 1 3 2 4 5 5 6 8 8 7 7 6 5 5 5 4 6 10 13 14 12 13 17 17 13 12 17 21 21 18 15 14 14 14 13 13 14 15 15 15 15 15 13 13 13 12 11 10 9 9 9 8 8 8 7 6 6 6 6 6 6 5 5 6 6 6 6 6 6 7 7 7 6 6 6 5
Wind_Direction
195 174 189 205 191 169 188 215 147 69 74 117 151 172 188 188 140 165 168 166 177 181 188 194 184 173 179 179 176 165 161 176 189 188 189 194 197 196 194 193 194 198 200 198 199 201 199 195 190 186 187 187 185 183 184 188 192 194 193 194 196 195 193 189 186 190 191 192 192 196 202 205 212 214 209 201 192 184 179 172 171 172 169 166 166 164
212 196 197 201 181 160 218 191 150 118 79 86 133 165 189 192 117 88 166 168 184 199 187 186 188 189 179 173 178 169 168 184 191 186 188 195 199 199 197 196 196 199 200 196 197 200 201 197 191 187 186 187 188 185 187 190 192 195 194 195 199 201 201 198 196 196 197 199 197 197 203 203 207 212 207 199 191 177 167 164 162 166 168 167 168 165
194 209 198 166 138 140 67 132 164 186 154 113 138 157 152 153 119 66 97 166 183 211 196 187 197 199 183 176 183 183 184 190 193 189 189 194 196 197 197 196 196 196 196 196 197 199 200 197 191 189 189 191 191 188 188 191 193 195 194 197 204 206 206 207 206 204 204 205 202 201 205 201 200 207 205 198 188 171 161 164 164 167 171 173 173 171
185 216 193 142 142 168 130 128 166 166 178 186 202 196 146 141 155 86 102 168 175 215 220 194 198 200 188 188 193 200 198 190 192 193 191 196 198 198 199 199 198 197 196 196 199 199 198 195 191 191 192 191 190 189 188 191 192 194 198 203 207 206 203 205 206 204 206 205 199 198 203 201 201 208 205 198 186 173 166 168 171 174 177 179 178 177
176 111 123 139 158 182 168 153 183 190 193 203 211 226 177 141 197 83 127 155 160 199 219 186 192 214 204 206 204 201 203 197 191 191 194 197 201 200 200 204 204 201 200 198 200 199 195 193 192 193 192 188 190 191 191 191 192 194 201 207 209 207 202 202 204 203 203 202 198 198 201 202 204 207 204 196 188 182 176 174 178 180 180 180 180 180
187 128 128 141 158 179 175 174 204 218 219 216 210 223 220 177 140 119 138 147 159 213 198 185 208 222 198 213 213 192 196 204 194 196 201 192 193 202 199 203 206 205 204 202 201 198 195 194 194 193 190 190 194 195 195 193 192 194 201 208 210 208 203 200 203 202 201 200 199 200 199 197 197 197 199 193 186 186 183 181 183 184 181 179 179 181
172 139 147 150 157 169 179 187 196 216 231 234 208 202 197 191 155 142 154 165 180 200 181 197 235 258 179 211 216 197 195 204 200 205 208 196 192 205 202 200 202 205 205 205 204 199 196 195 194 193 192 195 199 196 195 193 190 194 202 208 210 211 206 200 200 201 200 200 200 202 200 199 199 200 203 196 189 191 191 190 189 189 185 180 178 181
139 142 150 145 155 170 189 195 176 195 222 222 69 170 180 191 178 161 172 194 192 99 150 198 242 282 240 207 202 198 198 205 207 211 211 202 198 203 205 201 199 203 203 202 206 201 198 195 193 194 195 199 200 194 191 191 190 196 205 209 209 211 208 201 200 199 199 200 201 204 207 209 209 211 212 204 201 204 201 199 197 196 195 188 185 187
147 174 172 161 173 196 201 183 163 186 227 195 95 123 169 196 195 173 184 208 182 182 188 195 212 252 250 126 168 193 201 212 213 213 213 207 202 200 203 206 201 201 198 199 204 202 199 197 194 196 197 199 198 192 192 194 194 198 206 209 208 210 209 204 201 199 199 200 202 207 211 214 215 217 220 217 217 218 214 213 207 202 203 200 198 198
111 202 184 176 198 217 198 171 166 184 214 141 128 101 99 161 188 176 198 199 164 234 241 190 193 234 249 150 161 187 207 223 218 214 215 212 207 199 195 204 204 199 195 198 204 203 201 199 198 198 197 197 196 194 194 194 193 195 202 207 208 209 208 205 202 201 201 201 205 211 213 214 217 220 222 222 223 224 223 223 221 212 211 211 209 209
38 106 171 191 206 212 187 163 177 191 187 124 141 136 92 102 134 153 190 187 183 243 252 183 189 221 261 163 168 186 205 224 216 212 212 212 212 203 192 198 203 200 195 195 202 204 202 201 200 198 195 193 193 192 191 190 189 192 199 205 207 208 207 206 204 204 205 204 207 214 215 215 218 222 223 220 220 223 224 225 226 224 219 217 217 217
317 192 178 216 206 173 154 131 173 224 186 126 168 177 141 117 128 139 153 191 217 232 327 182 185 203 243 213 163 194 201 212 214 209 204 205 210 206 195 193 199 201 193 188 195 200 200 199 196 195 193 188 187 186 187 189 189 190 199 205 205 206 207 206 205 206 207 208 210 214 216 217 219 222 223 221 220 222 223 223 225 228 226 222 221 220
244 217 183 251 209 178 183 166 134 159 194 202 206 192 187 174 162 180 182 195 221 225 16 191 181 195 247 257 94 220 232 240 231 217 206 202 203 202 194 189 193 196 191 186 190 193 194 194 192 193 190 182 182 187 188 190 189 189 198 205 205 207 207 206 207 207 209 211 213 214 215 216 219 222 223 223 222 221 221 221 221 224 226 225 222 219
222 204 167 212 212 187 197 203 192 170 181 194 193 194 197 184 181 193 178 173 221 225 30 159 177 209 248 217 27 303 276 267 244 229 217 203 199 198 191 187 185 182 183 185 187 191 192 191 191 190 185 183 189 192 190 188 187 187 193 201 205 208 209 208 208 209 211 213 215 216 215 216 218 220 222 222 221 221 221 221 221 221 220 222 222 220
231 221 184 195 190 165 189 217 223 176 173 186 184 195 207 198 197 195 180 183 197 195 147 153 179 241 237 121 355 317 304 288 246 227 219 206 199 195 188 185 181 173 173 177 184 192 191 188 188 185 184 189 192 192 190 188 187 187 191 199 204 207 209 209 209 211 212 213 216 217 215 215 217 219 221 222 222 224 224 223 223 222 221 220 222 224
251 265 205 197 146 170 191 203 184 159 174 177 169 195 208 207 198 162 183 191 169 159 159 171 206 287 235 152 356 331 333 345 247 211 209 205 194 188 184 183 180 172 164 165 178 188 189 185 184 184 188 192 192 190 190 188 188 188 192 199 204 207 209 210 210 212 213 214 216 217 215 215 217 218 219 222 224 227 229 229 228 227 226 223 223 226
253 234 167 256 192 198 213 180 170 196 187 139 180 199 181 190 217 184 149 111 162 222 177 180 227 260 190 199 54 20 23 38 49 189 195 197 186 185 186 184 180 172 163 161 165 167 174 180 183 188 193 193 191 191 192 192 193 193 195 199 202 204 208 210 211 213 214 215 217 217 217 217 217 218 217 220 224 228 232 233 232 229 229 227 224 225
271 259 256 336 175 175 245 162 181 216 173 145 191 176 113 58 256 241 204 165 200 223 177 186 231 235 218 210 89 45 40 46 53 131 173 187 185 189 192 189 180 169 162 158 154 150 155 174 187 192 195 195 193 194 195 195 195 196 197 198 198 201 206 209 210 211 213 216 217 218 220 220 220 219 217 217 223 229 233 233 230 228 229 228 224 222
254 272 25 139 207 69 74 181 180 194 215 282 207 161 147 197 196 175 221 205 198 213 178 182 229 245 233 217 98 72 48 47 73 111 161 181 184 189 191 191 181 165 157 154 152 151 159 181 196 196 194 192 193 197 197 194 194 196 197 197 197 202 207 207 205 207 212 215 215 219 222 224 223 221 220 221 224 229 231 229 228 228 229 228 225 224
264 294 106 153 266 323 119 195 197 181 185 274 173 182 204 253 194 177 205 221 208 211 193 182 200 226 221 152 109 124 73 56 111 112 142 170 177 184 183 188 182 160 151 150 146 145 154 176 193 194 189 188 193 199 196 194 196 197 196 196 197 199 202 203 200 203 211 212 213 218 223 225 225 223 223 225 226 228 229 229 229 230 228 227 226 228
248 300 309 317 295 229 168 163 259 191 173 192 194 193 198 221 212 191 191 256 238 207 194 207 213 191 116 103 138 140 90 78 108 103 98 131 150 166 171 172 163 151 148 140 139 144 145 151 164 177 185 189 192 194 194 198 202 200 198 199 202 203 203 203 201 204 208 209 211 217 222 225 226 225 225 226 228 228 229 232 234 233 231 230 230 231
294 137 305 316 343 95 101 63 342 319 321 250 202 197 204 199 188 198 198 180 268 230 197 225 226 147 99 152 167 130 102 107 123 120 113 121 130 142 156 152 143 149 154 147 146 145 133 132 138 155 168 167 168 179 190 197 202 203 204 206 207 208 208 207 206 208 210 211 213 217 219 222 224 226 225 224 226 227 227 232 236 237 236 234 234 235
316 121 308 298 322 346 8 49 41 138 136 76 55 31 347 257 211 213 209 171 166 209 83 248 244 124 109 189 164 129 124 121 130 133 127 126 128 131 142 144 140 147 154 155 157 151 148 154 157 160 154 148 166 189 197 202 209 209 206 207 208 208 210 210 208 212 214 214 215 217 216 217 220 225 225 223 224 224 224 228 234 238 236 232 232 236
263 191 335 311 305 280 213 110 109 123 127 86 44 24 0 309 288 260 260 178 181 186 160 201 226 146 156 196 155 138 138 125 125 134 130 125 121 124 134 139 142 148 155 162 164 166 173 171 169 179 174 156 168 189 200 210 217 214 205 204 206 204 208 212 213 218 220 220 220 218 215 216 218 220 222 222 224 225 224 224 228 234 234 227 224 230
260 325 323 320 138 178 156 126 123 74 43 46 23 8 358 346 317 231 84 171 202 187 181 216 223 131 149 168 158 154 146 130 120 123 124 121 116 116 119 121 130 141 151 164 171 177 181 170 163 174 172 158 162 179 196 205 208 204 198 200 206 209 210 213 217 221 223 224 224 222 221 221 219 218 220 223 226 227 226 226 226 231 231 226 222 224
297 59 274 229 121 127 102 73 43 354 8 23 7 2 4 3 336 228 150 193 212 172 173 224 223 121 151 163 164 165 146 132 127 116 112 116 119 119 115 115 123 131 144 161 171 178 178 163 154 162 162 159 165 178 189 189 180 182 194 203 212 219 219 218 219 219 222 226 224 225 229 226 222 224 224 226 229 229 227 227 226 229 230 227 225 225
173 97 20 277 131 128 126 87 356 317 352 26 8 4 5 5 351 260 220 206 183 153 184 225 131 142 172 178 172 167 152 140 135 124 118 124 124 119 115 114 115 116 127 143 152 162 159 136 142 160 162 158 161 173 181 176 167 172 183 195 207 215 218 221 223 222 226 230 226 228 233 232 233 236 232 230 232 230 229 230 230 229 227 226 228 229
164 79 9 342 92 133 151 160 300 331 54 46 15 10 10 8 7 269 253 298 126 178 202 178 151 162 180 182 175 168 159 146 137 130 128 133 131 124 117 110 102 94 97 116 127 124 120 122 140 161 172 170 168 172 174 174 178 178 174 182 195 203 210 216 220 222 226 227 227 231 232 233 239 241 237 236 238 237 234 231 229 228 227 229 231 232
114 56 0 338 333 56 155 176 242 327 86 66 28 21 17 13 17 9 334 345 331 270 262 161 168 175 175 173 169 164 160 148 137 132 129 131 130 124 118 110 102 95 91 96 100 99 99 100 112 131 149 159 160 162 164 166 172 178 183 188 192 197 202 205 209 218 222 223 229 235 235 235 238 240 240 241 241 238 235 232 232 233 233 233 231 230
167 64 2 313 254 327 343 257 229 247 155 45 30 24 21 25 32 28 11 2 342 315 314 167 161 143 148 161 156 150 153 142 133 133 129 132 134 127 117 108 100 95 92 91 88 87 88 82 81 87 90 96 107 121 131 136 141 154 173 189 197 198 200 200 201 210 218 219 223 230 235 236 236 236 236 236 235 233 232 230 231 232 235 236 233 231
325 67 24 332 218 228 342 335 258 252 293 329 20 25 19 22 31 28 17 6 351 331 295 159 145 121 130 143 138 139 144 137 137 138 131 133 137 128 115 105 102 98 91 88 85 83 82 77 74 75 75 77 84 94 101 107 115 125 138 168 194 198 201 206 206 210 217 218 216 222 229 233 233 230 226 224 223 222 222 223 225 228 232 235 235 235
0 20 104 143 206 207 3 346 302 301 306 299 358 38 28 21 27 26 22 11 351 334 170 155 151 145 143 139 137 140 142 142 144 141 136 141 143 130 114 104 106 104 95 89 84 82 79 73 69 68 67 68 71 77 85 93 97 96 94 100 126 158 178 194 206 213 219 220 219 219 223 227 228 225 220 213 210 210 211 212 217 224 229 231 232 234
10 341 177 186 215 191 75 350 334 358 316 285 245 80 57 47 45 31 31 28 4 339 247 191 128 144 146 142 139 140 144 147 145 140 140 144 139 126 116 111 111 106 99 94 88 82 81 78 75 72 70 72 75 78 83 85 84 82 82 87 95 104 110 118 132 151 172 203 217 219 219 222 224 222 219 215 217 221 218 213 212 219 226 230 233 236
43 347 21 283 239 171 49 352 16 158 246 264 130 125 106 92 81 66 53 22 6 357 277 308 89 138 145 142 138 140 141 136 124 119 132 140 135 127 122 119 116 111 105 102 95 87 84 85 86 83 79 80 83 86 88 88 86 85 85 87 90 93 93 92 92 90 89 99 135 190 207 214 219 222 220 219 225 233 231 223 221 224 229 232 234 237
19 14 71 332 290 125 75 36 186 194 226 79 142 218 110 103 101 98 96 46 19 9 244 180 148 146 144 137 132 126 115 99 77 68 92 115 124 126 127 124 119 115 108 102 100 96 90 88 89 87 84 85 89 90 89 88 87 85 83 83 84 85 85 85 85 83 83 84 84 90 117 154 182 199 205 208 213 220 224 224 222 222 223 224 224 228
21 47 118 64 346 96 165 185 191 221 339 29 157 267 15 83 106 113 115 68 31 349 242 150 142 137 123 115 113 108 103 94 71 47 47 59 86 111 122 120 117 115 109 104 105 102 96 91 88 89 90 92 93 94 92 90 89 85 81 81 81 80 80 80 78 77 79 80 82 86 90 92 92 101 136 168 178 180 185 197 203 203 202 203 207 214
35 60 243 256 37 341 209 199 203 228 119 106 67 10 331 319 350 9 355 66 38 304 145 128 124 117 109 108 111 114 109 96 76 43 29 42 79 99 103 104 106 108 108 108 108 106 102 98 94 93 94 94 94 94 95 94 93 89 84 81 79 78 78 77 74 73 76 77 78 83 90 95 98 100 111 128 136 138 141 148 157 168 173 172 177 184
48 36 323 254 132 349 263 213 217 215 161 114 11 348 335 318 305 287 282 79 125 182 143 128 121 118 122 125 124 124 116 105 103 72 31 44 89 100 102 105 107 109 112 114 112 107 102 100 100 98 96 93 91 93 96 96 94 90 84 78 76 77 77 77 76 76 79 80 80 80 84 91 100 104 104 102 105 110 114 114 119 130 140 146 149 152
59 62 55 227 114 141 229 210 214 229 114 64 333 322 330 327 314 282 278 253 169 174 149 133 132 135 136 138 139 141 136 123 122 104 42 53 102 107 106 104 103 105 108 111 112 109 105 105 106 104 98 93 90 91 94 96 93 89 82 75 77 77 74 76 80 81 84 86 87 84 82 83 88 90 86 79 78 88 97 98 98 98 101 110 119 123
26 28 33 24 82 110 222 210 179 5 52 7 322 318 325 331 323 238 265 14 148 174 160 143 143 143 141 149 159 156 146 138 143 143 83 58 115 121 120 116 111 109 108 107 109 109 108 108 105 100 96 94 93 93 94 93 90 85 80 77 78 76 74 79 85 87 88 88 88 87 84 83 83 82 81 81 80 76 74 82 90 91 91 96 100 101
358 357 14 48 84 50 297 184 138 71 22 337 318 320 320 304 229 215 276 35 182 196 172 154 154 151 150 164 179 167 141 144 151 151 145 149 146 131 127 126 123 119 117 116 115 111 107 103 100 97 96 97 98 96 94 93 89 83 80 80 77 74 78 85 90 91 89 87 85 84 83 81 79 78 78 81 85 86 79 80 95 104 105 107 105 98
323 326 7 20 37 16 333 14 96 113 77 338 318 316 315 285 239 307 345 329 240 218 186 165 163 162 163 165 156 132 131 138 141 143 146 157 157 129 125 128 124 121 120 117 115 113 107 101 98 95 94 96 96 95 93 93 91 87 85 82 77 76 81 86 89 90 87 85 81 78 78 78 76 78 78 76 81 88 89 91 99 106 106 106 106 102
346 325 5 98 40 3 221 21 38 115 89 357 331 325 354 1 345 331 324 317 263 209 198 179 164 167 171 157 136 135 142 141 141 144 149 156 152 135 131 128 117 114 115 110 108 109 107 101 95 90 87 87 87 88 90 91 89 87 85 83 82 82 83 84 87 86 82 80 77 73 72 72 73 75 76 74 78 84 88 90 93 95 98 100 101 101
249 291 335 112 217 299 350 63 46 9 356 353 345 347 7 349 328 306 306 315 317 177 183 175 143 152 161 148 142 148 152 151 151 150 151 154 150 142 139 135 123 114 109 102 101 102 101 100 96 90 86 84 84 84 85 86 87 85 81 81 84 85 84 84 85 83 78 73 71 69 67 67 68 69 69 70 74 77 79 80 80 81 85 89 91 91
281 310 332 328 210 299 335 4 9 328 317 331 334 307 323 328 318 299 286 286 301 150 163 158 130 119 127 138 144 149 153 157 157 152 150 150 146 142 143 138 130 126 119 110 108 106 101 101 101 97 90 85 84 84 82 82 85 85 82 81 80 77 79 82 81 80 77 72 67 65 62 61 61 60 60 60 62 62 62 63 65 66 69 72 73 73
8 249 256 302 280 251 268 312 337 326 331 343 342 260 307 337 345 340 325 324 346 13 141 140 127 116 113 120 130 140 149 154 151 146 148 152 149 145 143 139 135 134 131 125 120 117 110 103 102 101 98 92 87 84 82 79 81 86 87 86 79 73 74 78 78 77 75 71 65 62 61 59 55 53 52 51 50 51 50 50 52 54 55 56 57 56
163 184 202 301 306 275 235 67 24 354 345 348 350 21 27 6 7 11 13 15 6 0 91 114 119 115 107 112 126 134 141 149 147 139 139 146 151 149 146 144 145 143 140 139 137 134 128 121 114 110 104 97 90 84 81 78 77 84 90 86 80 79 79 76 73 71 67 65 64 61 59 58 55 51 49 47 45 45 44 43 44 45 45 43 42 41
153 197 236 302 191 288 331 63 49 325 344 3 2 16 25 15 21 29 29 32 40 50 77 103 119 123 120 116 113 109 113 124 126 126 135 143 155 161 155 151 151 151 146 144 144 141 136 130 125 120 113 107 101 94 88 82 78 81 85 82 77 80 81 78 73 67 60 56 56 56 53 51 49 46 46 45 43 43 42 39 38 42 43 39 34 30
137 215 207 73 237 261 275 160 201 242 2 47 32 24 13 358 14 40 40 38 50 62 74 92 112 125 128 123 115 115 130 149 156 157 156 153 155 161 158 153 155 156 153 148 147 146 140 133 129 126 123 121 118 111 102 95 89 86 86 84 78 75 77 76 73 68 61 54 50 48 44 42 40 35 34 35 37 41 41 39 41 47 49 45 41 38
234 220 162 202 250 254 267 105 218 252 87 62 36 26 16 358 10 45 49 44 49 56 70 92 108 125 136 142 152 165 173 173 173 171 164 158 161 162 164 173 168 158 157 156 153 151 146 139 136 136 134 132 129 122 113 106 99 92 88 85 81 78 76 73 69 65 59 53 48 42 36 35 34 30 26 22 22 25 26 26 34 44 50 48 44 39
230 217 171 212 251 297 67 99 139 303 84 88 42 21 21 9 18 41 45 43 52 62 75 92 101 122 148 159 170 179 182 178 176 173 167 167 171 170 172 181 180 170 168 170 166 157 150 144 142 143 142 138 133 125 118 112 105 97 91 85 82 80 77 73 69 65 56 50 45 35 28 25 23 20 18 15 13 11 7 6 13 26 37 42 41 34